{"data":{"norad_id":39270,"intl_designator":"2013-055F","name":"POPACS 3","alt_names":[],"object_type":"PAYLOAD","status":"ACTIVE","operator":null,"country":"US","launch_date":"2013-09-29","launch_site_code":"AFWTR","launch_vehicle":null,"mission":null,"orbit_class":"UNKNOWN","rcs_meters":0.0184,"size_class":null,"mass_kg":null,"dimensions":null,"purposes":["tech_demo"],"wikipedia_slug":null,"has_3d_model":false,"image_url":null,"decayed_at":null,"tle_current":{"epoch":"2026-05-25T00:38:31.403904Z","epoch_age_seconds":66041,"freshness":"FRESH","line1":"1 39270U 13055F   26145.02675236  .00013856  00000+0  32809-3 0  9991","line2":"2 39270  81.0015 254.2845 0554383 140.4308 223.8766 14.55547465635189","mean_motion":14.55547465,"eccentricity":0.0554383,"inclination_deg":81.0015,"raan_deg":254.2845,"arg_perigee_deg":140.4308,"mean_anomaly_deg":223.8766,"bstar":0.00032809,"rev_number":63518,"period_min":98.931847612403,"perigee_km":314.76693802993,"apogee_km":1100.4079742644,"semimajor_km":7085.7244561472,"source":"CELESTRAK","updated_at":"2026-05-25T13:38:25.492830Z"}}}